When you browse on this site, cookies collect data to enhance your experience and personalize the content and advertising you see.
Visit our Privacy Policy to learn more. By continuing to use the site, you agree to this use of cookies and data.
  • In Hungary
  • List of Countries
  • For 7 days
  • Water Temperature
  • Satellite Maps
  • Weather Map
  • News
  • Weather Widgets
  • user-avatar
    Login

    Hourly Weather Trumbull

    Today, 19 December, Wednesday

    Time Temperature Precipitation Wind Pressure Humidity
    00:00 -5°C° 0 mm 3 mps 759 mmHg 55%
    01:00 -5°C° 0 mm 3 mps 759 mmHg 55%
    02:00 -5°C° 0 mm 3 mps 759 mmHg 55%
    03:00 -4°C° 0 mm 2 mps 759 mmHg 56%
    04:00 -4°C° 0 mm 2 mps 759 mmHg 57%
    05:00 -4°C° 0 mm 2 mps 759 mmHg 58%
    06:00 -4°C° 0 mm 2 mps 759 mmHg 59%
    07:00 -5°C° 0 mm 2 mps 759 mmHg 60%
    08:00 -3°C° 0 mm 2 mps 759 mmHg 54%
    09:00 -2°C° 0 mm 2 mps 759 mmHg 49%
    10:00 -1°C° 0 mm 2 mps 759 mmHg 43%
    11:00 +2°C° 0 mm 2 mps 759 mmHg 40%
    12:00 +3°C° 0 mm 2 mps 758 mmHg 37%
    13:00 +3°C° 0 mm 3 mps 758 mmHg 34%
    14:00 +2°C° 0 mm 3 mps 758 mmHg 38%
    15:00 +2°C° 0 mm 3 mps 758 mmHg 42%
    16:00 +1°C° 0 mm 3 mps 758 mmHg 46%
    17:00 +1°C° 0 mm 3 mps 758 mmHg 51%
    18:00 0°C° 0 mm 3 mps 758 mmHg 55%
    19:00 0°C° 0 mm 3 mps 758 mmHg 60%
    20:00 0°C° 0 mm 3 mps 758 mmHg 64%
    21:00 0°C° 0 mm 3 mps 758 mmHg 69%
    22:00 0°C° 0 mm 3 mps 758 mmHg 73%
    23:00 0°C° 0 mm 3 mps 758 mmHg 76%

    Tomorrow, 20 December, Thursday

    Time Temperature Precipitation Wind Pressure Humidity
    00:00 +1°C° 0 mm 2 mps 758 mmHg 78%
    01:00 +1°C° 0 mm 2 mps 758 mmHg 81%
    02:00 +1°C° 0 mm 2 mps 758 mmHg 82%
    03:00 +1°C° 0 mm 2 mps 758 mmHg 84%
    04:00 +1°C° 0 mm 2 mps 758 mmHg 85%
    05:00 +1°C° 0 mm 2 mps 758 mmHg 86%
    06:00 +1°C° 0 mm 2 mps 758 mmHg 87%
    07:00 +2°C° 0 mm 1 mps 758 mmHg 87%
    08:00 +3°C° 0 mm 1 mps 758 mmHg 82%
    09:00 +5°C° 0 mm 1 mps 759 mmHg 76%
    10:00 +6°C° 0 mm 1 mps 759 mmHg 70%
    11:00 +7°C° 0 mm 1 mps 758 mmHg 68%
    12:00 +8°C° 0 mm 1 mps 758 mmHg 67%
    13:00 +8°C° 0 mm 2 mps 757 mmHg 65%
    14:00 +8°C° 0 mm 1 mps 757 mmHg 71%
    15:00 +7°C° 0 mm 1 mps 757 mmHg 78%
    16:00 +6°C° 0 mm 1 mps 756 mmHg 84%
    17:00 +6°C° 0 mm 1 mps 756 mmHg 86%
    18:00 +5°C° 0 mm 2 mps 756 mmHg 87%
    19:00 +5°C° 0 mm 2 mps 756 mmHg 89%
    20:00 +5°C° 0.1 mm 3 mps 755 mmHg 90%
    21:00 +5°C° 0.1 mm 3 mps 755 mmHg 90%
    22:00 +6°C° 0.1 mm 4 mps 754 mmHg 91%
    23:00 +6°C° 0.8 mm 4 mps 753 mmHg 92%

    Day after tomorrow, 21 December, Friday

    Time Temperature Precipitation Wind Pressure Humidity
    00:00 +7°C° 0.8 mm 5 mps 751 mmHg 94%
    01:00 +8°C° 0.8 mm 5 mps 750 mmHg 95%
    02:00 +9°C° 4.7 mm 6 mps 749 mmHg 95%
    03:00 +10°C° 4.7 mm 7 mps 747 mmHg 94%
    04:00 +11°C° 4.7 mm 8 mps 746 mmHg 94%
    05:00 +12°C° 9.1 mm 9 mps 745 mmHg 93%
    06:00 +13°C° 9.1 mm 10 mps 743 mmHg 93%
    07:00 +16°C° 9.1 mm 10 mps 742 mmHg 93%
    08:00 +16°C° 4 mm 10 mps 742 mmHg 93%
    09:00 +16°C° 4 mm 10 mps 742 mmHg 93%
    10:00 +17°C° 4 mm 9 mps 742 mmHg 92%
    11:00 +16°C° 6 mm 7 mps 740 mmHg 94%
    12:00 +15°C° 6 mm 6 mps 739 mmHg 96%
    13:00 +15°C° 6 mm 4 mps 738 mmHg 97%
    14:00 +15°C° 1.1 mm 4 mps 738 mmHg 97%
    15:00 +15°C° 1.1 mm 4 mps 738 mmHg 96%
    16:00 +15°C° 1.1 mm 5 mps 737 mmHg 95%
    17:00 +14°C° 0.5 mm 5 mps 737 mmHg 95%
    18:00 +14°C° 0.5 mm 5 mps 737 mmHg 95%
    19:00 +14°C° 0.5 mm 6 mps 737 mmHg 95%
    20:00 +13°C° 0.1 mm 5 mps 738 mmHg 93%
    21:00 +13°C° 0.1 mm 5 mps 738 mmHg 91%
    22:00 +12°C° 0.1 mm 5 mps 738 mmHg 89%
    23:00 +10°C° 0.1 mm 5 mps 738 mmHg 87%

    22 December, Saturday

    Time Temperature Precipitation Wind Pressure Humidity
    00:00 +10°C° 0.1 mm 5 mps 737 mmHg 85%
    01:00 +9°C° 0.1 mm 5 mps 737 mmHg 83%
    02:00 +8°C° 0 mm 5 mps 737 mmHg 81%
    03:00 +7°C° 0 mm 5 mps 737 mmHg 80%
    04:00 +6°C° 0 mm 5 mps 737 mmHg 78%
    05:00 +7°C° 0 mm 6 mps 737 mmHg 79%
    06:00 +7°C° 0 mm 6 mps 737 mmHg 80%
    07:00 +6°C° 0 mm 7 mps 737 mmHg 81%
    08:00 +6°C° 0.1 mm 7 mps 738 mmHg 77%
    09:00 +6°C° 0.1 mm 8 mps 738 mmHg 73%
    10:00 +6°C° 0.1 mm 8 mps 739 mmHg 69%
    11:00 +6°C° 0 mm 8 mps 739 mmHg 67%
    12:00 +6°C° 0 mm 8 mps 739 mmHg 65%
    13:00 +6°C° 0 mm 8 mps 740 mmHg 62%
    14:00 +6°C° 0 mm 7 mps 741 mmHg 63%
    15:00 +6°C° 0 mm 7 mps 741 mmHg 63%
    16:00 +5°C° 0 mm 7 mps 742 mmHg 64%
    17:00 +5°C° 0 mm 7 mps 743 mmHg 65%
    18:00 +4°C° 0 mm 7 mps 744 mmHg 66%
    19:00 +4°C° 0 mm 7 mps 745 mmHg 67%
    20:00 +3°C° 0 mm 7 mps 746 mmHg 67%
    21:00 +3°C° 0 mm 7 mps 746 mmHg 68%
    22:00 +3°C° 0 mm 6 mps 747 mmHg 68%
    23:00 +2°C° 0 mm 6 mps 747 mmHg 69%

    23 December, Sunday

    Time Temperature Precipitation Wind Pressure Humidity
    00:00 +2°C° 0 mm 6 mps 747 mmHg 69%
    01:00 +2°C° 0 mm 6 mps 748 mmHg 70%
    02:00 +2°C° 0 mm 6 mps 748 mmHg 70%
    03:00 +2°C° 0 mm 6 mps 748 mmHg 70%
    04:00 +1°C° 0 mm 6 mps 749 mmHg 70%
    05:00 +1°C° 0 mm 6 mps 749 mmHg 69%
    06:00 +1°C° 0 mm 6 mps 750 mmHg 69%
    07:00 +1°C° 0 mm 6 mps 750 mmHg 68%
    08:00 +1°C° 0 mm 6 mps 751 mmHg 66%
    09:00 +2°C° 0 mm 6 mps 751 mmHg 63%
    10:00 +2°C° 0 mm 6 mps 752 mmHg 61%
    11:00 +3°C° 0 mm 6 mps 752 mmHg 59%
    12:00 +3°C° 0 mm 6 mps 752 mmHg 57%
    13:00 +4°C° 0 mm 6 mps 752 mmHg 56%
    14:00 +3°C° 0 mm 6 mps 752 mmHg 58%
    15:00 +3°C° 0 mm 5 mps 753 mmHg 59%
    16:00 +2°C° 0 mm 5 mps 753 mmHg 61%
    17:00 +1°C° 0 mm 5 mps 754 mmHg 64%
    18:00 0°C° 0 mm 5 mps 754 mmHg 66%
    19:00 0°C° 0 mm 5 mps 755 mmHg 69%
    20:00 -1°C° 0 mm 4 mps 755 mmHg 70%
    21:00 -1°C° 0 mm 4 mps 755 mmHg 71%
    22:00 -1°C° 0 mm 4 mps 755 mmHg 72%
    23:00 -2°C° 0 mm 4 mps 755 mmHg 72%

    24 December, Monday

    Time Temperature Precipitation Wind Pressure Humidity
    00:00 -2°C° 0 mm 4 mps 755 mmHg 72%
    01:00 -2°C° 0 mm 4 mps 755 mmHg 72%
    02:00 -2°C° 0 mm 4 mps 755 mmHg 71%
    03:00 -2°C° 0 mm 4 mps 755 mmHg 70%
    04:00 -2°C° 0 mm 4 mps 755 mmHg 68%
    05:00 -2°C° 0 mm 4 mps 755 mmHg 67%
    06:00 -1°C° 0 mm 4 mps 755 mmHg 66%
    07:00 -1°C° 0 mm 4 mps 755 mmHg 64%
    08:00 0°C° 0 mm 4 mps 755 mmHg 62%
    09:00 +1°C° 0 mm 5 mps 756 mmHg 59%
    10:00 +1°C° 0 mm 5 mps 756 mmHg 56%
    11:00 +2°C° 0 mm 5 mps 755 mmHg 54%
    12:00 +2°C° 0 mm 5 mps 755 mmHg 52%
    13:00 +3°C° 0 mm 5 mps 755 mmHg 50%
    14:00 +2°C° 0 mm 5 mps 755 mmHg 51%
    15:00 +2°C° 0 mm 5 mps 755 mmHg 52%
    16:00 +1°C° 0 mm 5 mps 756 mmHg 53%
    17:00 +1°C° 0 mm 6 mps 756 mmHg 55%
    18:00 -1°C° 0 mm 6 mps 757 mmHg 57%
    19:00 -2°C° 0 mm 6 mps 758 mmHg 59%
    20:00 -2°C° 0 mm 6 mps 758 mmHg 61%
    21:00 -1°C° 0 mm 5 mps 759 mmHg 62%
    22:00 -1°C° 0 mm 5 mps 759 mmHg 64%
    23:00 -2°C° 0 mm 5 mps 759 mmHg 65%
    Show more